ボリソフ彗星

2I/Borisov

English version
Home page
Updated on January 25, 2020

---------------------------------------------------------------------

・ プロフィール

符号 2I/2019 Q4
発見日 2019年8月30日
発見光度 17.8等
発見者 Gennady Borisov (MARGO observatory near Nauchnij, Crimea)

・ 写真集

・ 軌道要素

Epoch 2019 Dec. 23.0 TT = JDT 2458840.5                                         
T 2019 Dec. 8.55613 TT                                  Williams                
q   2.0065413            (2000.0)            P               Q                  
z  -1.1745214      Peri.  209.12618     -0.81469119     -0.19307414             
 +/-0.0000307      Node   308.14819     +0.56665723     -0.46538502             
e   3.3567256      Incl.   44.05261     -0.12319842     -0.86379347             
From 1906 observations 2019 Mar. 17-Nov. 17, mean residual 0".7.                

・ 星図

・ 光度変化

        H = 12.3  G = 0.15                [    ,-110]  (              〜2019年 8月20日)
        m1 = 10.5 + 5 logΔ + 10.0 log r  [-110,    ]  (2019年 8月20日〜              )

---------------------------------------------------------------------

軌道要素はM.P.E.C. 2019-W50に掲載されたものです。
星図はステラナビゲータ Ver.10 (アストロアーツ) で作成したものです。
光度グラフはComet for Windowsで作成したものです。

---------------------------------------------------------------------

Copyright(C) Seiichi Yoshida (comet@aerith.net). All rights reserved.